Location: Unspecified
(0.0000°N, 0.0000°E)
Time: 17:40:52
(UTC+00:00)

Oscar 10/S400 - Visible Passes

Search period start: 18 January 2026 00:00
Search period end: 28 January 2026 00:00
Orbit: 3904 x 35543 km, 26.0° (Epoch: 16 January)

Date Brightness Start Highest point End Pass type
(mag) Time Alt. Az. Time Alt. Az. Time Alt. Az.
18 Jan ? 20:03:27 10° WNW 20:58:26 85° SW 07:01:46 10° ENE visible
19 Jan ? 19:18:38 10° WNW 20:02:00 87° NE 06:16:16 10° E visible
20 Jan ? 18:34:08 10° NW 19:09:29 78° NE 05:30:02 10° E visible
21 Jan ? 17:49:50 10° NW 18:19:28 69° NE 04:42:47 10° E visible
22 Jan ? 17:05:35 10° NW 17:30:59 60° NNE 03:54:01 10° E visible
23 Jan ? 16:21:16 10° NW 16:43:26 52° NNE 03:03:00 10° E visible
24 Jan ? 15:36:45 10° NW 23:58:16 32° SE 02:08:15 10° ESE visible
25 Jan ? 14:51:48 10° NW 23:13:37 23° ESE 01:06:35 10° ESE visible
26 Jan ? 20:33:11 10° ESE 22:29:57 14° ESE 23:46:24 10° ESE visible
